contact:dominique.lefevre@mio.osupytheas.fr, maurice.libes@osupytheas.fr, didier.mallarino@osupytheas.fr
Project:EMSO http://www.emso-fr.org/EMSO-France
Depth: 2436.0 m
Title:EMSO Ligure Ouest : Data MII capteur MICROCAT
DateTime_Computer,Latitude,Longitude,Temperature,Conductivity,Pressure,DateTime_Instrument
DateTime_Computer,Latitude,Longitude,degC,S m-1,dbar,DateTime_Instrument
2023-06-17T00:02:35Z,42.805,6.029,13.3048,4.60167,2470.707,2023-6-17T02:04:49Z
2023-06-17T00:05:38Z,42.805,6.029,13.3043,4.60174,2470.684,2023-6-17T02:07:52Z
2023-06-17T00:08:41Z,42.805,6.029,13.3042,4.60160,2470.684,2023-6-17T02:10:55Z
2023-06-17T00:11:44Z,42.805,6.029,13.3052,4.60160,2470.693,2023-6-17T02:13:58Z
2023-06-17T00:14:47Z,42.805,6.029,13.3048,4.60162,2470.707,2023-6-17T02:17:01Z
2023-06-17T00:17:50Z,42.805,6.029,13.3046,4.60152,2470.661,2023-6-17T02:20:04Z
2023-06-17T00:20:53Z,42.805,6.029,13.3053,4.60157,2470.693,2023-6-17T02:23:07Z
2023-06-17T00:23:56Z,42.805,6.029,13.3055,4.60152,2470.693,2023-6-17T02:26:11Z
2023-06-17T00:26:59Z,42.805,6.029,13.3058,4.60137,2470.684,2023-6-17T02:29:14Z
2023-06-17T00:30:02Z,42.805,6.029,13.3053,4.60185,2470.707,2023-6-17T02:32:17Z
2023-06-17T00:33:06Z,42.805,6.029,13.3056,4.60157,2470.693,2023-6-17T02:35:20Z
2023-06-17T00:36:09Z,42.805,6.029,13.3054,4.60164,2470.67,2023-6-17T02:38:23Z
2023-06-17T00:39:12Z,42.805,6.029,13.3052,4.60130,2470.707,2023-6-17T02:41:26Z
2023-06-17T00:42:15Z,42.805,6.029,13.3047,4.60165,2470.707,2023-6-17T02:44:29Z
2023-06-17T00:45:18Z,42.805,6.029,13.3043,4.60178,2470.693,2023-6-17T02:47:32Z
2023-06-17T00:48:21Z,42.805,6.029,13.3058,4.60152,2470.646,2023-6-17T02:50:35Z
2023-06-17T00:51:24Z,42.805,6.029,13.3051,4.60146,2470.707,2023-6-17T02:53:38Z
2023-06-17T00:54:27Z,42.805,6.029,13.3041,4.60132,2470.693,2023-6-17T02:56:41Z
2023-06-17T00:57:30Z,42.805,6.029,13.3061,4.60144,2470.684,2023-6-17T02:59:44Z
2023-06-17T01:00:33Z,42.805,6.029,13.3054,4.60137,2470.693,2023-6-17T03:02:48Z
2023-06-17T01:03:36Z,42.805,6.029,13.3039,4.60129,2470.646,2023-6-17T03:05:51Z
2023-06-17T01:06:39Z,42.805,6.029,13.3029,4.60113,2470.693,2023-6-17T03:08:54Z
2023-06-17T01:09:43Z,42.805,6.029,13.3039,4.60126,2470.67,2023-6-17T03:11:57Z
2023-06-17T01:12:46Z,42.805,6.029,13.3030,4.60127,2470.693,2023-6-17T03:15:00Z
2023-06-17T01:15:49Z,42.805,6.029,13.3051,4.60151,2470.67,2023-6-17T03:18:03Z
2023-06-17T01:18:52Z,42.805,6.029,13.3031,4.60140,2470.646,2023-6-17T03:21:06Z
2023-06-17T01:21:55Z,42.805,6.029,13.3034,4.60128,2470.646,2023-6-17T03:24:09Z
2023-06-17T01:24:58Z,42.805,6.029,13.3036,4.60131,2470.646,2023-6-17T03:27:12Z
2023-06-17T01:28:01Z,42.805,6.029,13.3040,4.60122,2470.67,2023-6-17T03:30:15Z
2023-06-17T01:31:04Z,42.805,6.029,13.3055,4.60144,2470.693,2023-6-17T03:33:18Z
2023-06-17T01:34:07Z,42.805,6.029,13.3054,4.60127,2470.693,2023-6-17T03:36:21Z
2023-06-17T01:37:10Z,42.805,6.029,13.3038,4.60111,2470.656,2023-6-17T03:39:24Z
2023-06-17T01:40:13Z,42.805,6.029,13.3031,4.60110,2470.684,2023-6-17T03:42:28Z
2023-06-17T01:43:16Z,42.805,6.029,13.3034,4.60128,2470.684,2023-6-17T03:45:31Z
2023-06-17T01:46:19Z,42.805,6.029,13.3033,4.60105,2470.684,2023-6-17T03:48:34Z
2023-06-17T01:49:23Z,42.805,6.029,13.3034,4.60129,2470.67,2023-6-17T03:51:37Z
2023-06-17T01:52:26Z,42.805,6.029,13.3033,4.60112,2470.67,2023-6-17T03:54:40Z
2023-06-17T01:55:29Z,42.805,6.029,13.3041,4.60127,2470.684,2023-6-17T03:57:43Z
2023-06-17T01:58:32Z,42.805,6.029,13.3039,4.60143,2470.646,2023-6-17T04:00:46Z
2023-06-17T02:01:35Z,42.805,6.029,13.3042,4.60131,2470.693,2023-6-17T04:03:49Z
2023-06-17T02:04:38Z,42.805,6.029,13.3034,4.60125,2470.693,2023-6-17T04:06:52Z
2023-06-17T02:07:41Z,42.805,6.029,13.3037,4.60119,2470.693,2023-6-17T04:09:55Z
2023-06-17T02:10:44Z,42.805,6.029,13.3038,4.60122,2470.684,2023-6-17T04:12:58Z
2023-06-17T02:13:47Z,42.805,6.029,13.3039,4.60114,2470.707,2023-6-17T04:16:01Z
2023-06-17T02:16:50Z,42.805,6.029,13.3033,4.60107,2470.684,2023-6-17T04:19:05Z
2023-06-17T02:19:53Z,42.805,6.029,13.3041,4.60110,2470.67,2023-6-17T04:22:08Z
2023-06-17T02:22:56Z,42.805,6.029,13.3034,4.60120,2470.684,2023-6-17T04:25:11Z
2023-06-17T02:26:00Z,42.805,6.029,13.3047,4.60145,2470.693,2023-6-17T04:28:14Z
2023-06-17T02:29:03Z,42.805,6.029,13.3041,4.60152,2470.693,2023-6-17T04:31:17Z
2023-06-17T02:32:06Z,42.805,6.029,13.3034,4.60129,2470.754,2023-6-17T04:34:20Z
2023-06-17T02:35:09Z,42.805,6.029,13.3042,4.60150,2470.707,2023-6-17T04:37:23Z
2023-06-17T02:38:12Z,42.805,6.029,13.3034,4.60152,2470.693,2023-6-17T04:40:26Z
2023-06-17T02:41:15Z,42.805,6.029,13.3047,4.60137,2470.707,2023-6-17T04:43:29Z
2023-06-17T02:44:18Z,42.805,6.029,13.3036,4.60144,2470.717,2023-6-17T04:46:32Z
2023-06-17T02:47:21Z,42.805,6.029,13.3040,4.60133,2470.693,2023-6-17T04:49:35Z
2023-06-17T02:50:24Z,42.805,6.029,13.3040,4.60184,2470.693,2023-6-17T04:52:38Z
2023-06-17T02:53:27Z,42.805,6.029,13.3041,4.60114,2470.707,2023-6-17T04:55:41Z
2023-06-17T02:56:30Z,42.805,6.029,13.3050,4.60137,2470.707,2023-6-17T04:58:45Z
2023-06-17T02:59:33Z,42.805,6.029,13.3043,4.60151,2470.693,2023-6-17T05:01:48Z
2023-06-17T03:02:36Z,42.805,6.029,13.3034,4.60104,2470.707,2023-6-17T05:04:51Z
2023-06-17T03:05:40Z,42.805,6.029,13.3046,4.60117,2470.717,2023-6-17T05:07:54Z
2023-06-17T03:08:43Z,42.805,6.029,13.3041,4.60121,2470.693,2023-6-17T05:10:57Z
2023-06-17T03:11:46Z,42.805,6.029,13.3031,4.60118,2470.717,2023-6-17T05:14:00Z
2023-06-17T03:14:49Z,42.805,6.029,13.3032,4.60102,2470.693,2023-6-17T05:17:03Z
2023-06-17T03:17:52Z,42.805,6.029,13.3032,4.60117,2470.73,2023-6-17T05:20:06Z
2023-06-17T03:20:55Z,42.805,6.029,13.3032,4.60125,2470.693,2023-6-17T05:23:09Z
2023-06-17T03:23:58Z,42.805,6.029,13.3037,4.60119,2470.707,2023-6-17T05:26:12Z
2023-06-17T03:27:01Z,42.805,6.029,13.3031,4.60117,2470.707,2023-6-17T05:29:15Z
2023-06-17T03:30:04Z,42.805,6.029,13.3039,4.60123,2470.717,2023-6-17T05:32:18Z
2023-06-17T03:33:07Z,42.805,6.029,13.3038,4.60126,2470.717,2023-6-17T05:35:22Z
2023-06-17T03:36:10Z,42.805,6.029,13.3040,4.60119,2470.74,2023-6-17T05:38:25Z
2023-06-17T03:39:13Z,42.805,6.029,13.3058,4.60132,2470.74,2023-6-17T05:41:28Z
2023-06-17T03:42:16Z,42.805,6.029,13.3059,4.60129,2470.707,2023-6-17T05:44:31Z
2023-06-17T03:45:20Z,42.805,6.029,13.3045,4.60135,2470.693,2023-6-17T05:47:34Z
2023-06-17T03:48:23Z,42.805,6.029,13.3036,4.60124,2470.717,2023-6-17T05:50:37Z
2023-06-17T03:51:26Z,42.805,6.029,13.3031,4.60104,2470.763,2023-6-17T05:53:40Z
2023-06-17T03:54:29Z,42.805,6.029,13.3039,4.60127,2470.74,2023-6-17T05:56:43Z
2023-06-17T03:57:32Z,42.805,6.029,13.3048,4.60149,2470.754,2023-6-17T05:59:46Z
2023-06-17T04:00:35Z,42.805,6.029,13.3052,4.60135,2470.717,2023-6-17T06:02:49Z
2023-06-17T04:03:38Z,42.805,6.029,13.3027,4.60110,2470.717,2023-6-17T06:05:52Z
2023-06-17T04:06:41Z,42.805,6.029,13.3041,4.60131,2470.754,2023-6-17T06:08:55Z
2023-06-17T04:09:44Z,42.805,6.029,13.3027,4.60119,2470.754,2023-6-17T06:11:58Z
2023-06-17T04:12:47Z,42.805,6.029,13.3034,4.60110,2470.763,2023-6-17T06:15:02Z
2023-06-17T04:15:50Z,42.805,6.029,13.3024,4.60102,2470.74,2023-6-17T06:18:05Z
2023-06-17T04:18:53Z,42.805,6.029,13.3028,4.60102,2470.787,2023-6-17T06:21:08Z
2023-06-17T04:21:57Z,42.805,6.029,13.3038,4.60109,2470.754,2023-6-17T06:24:11Z
2023-06-17T04:25:00Z,42.805,6.029,13.3031,4.60144,2470.74,2023-6-17T06:27:14Z
2023-06-17T04:28:03Z,42.805,6.029,13.3033,4.60107,2470.763,2023-6-17T06:30:17Z
2023-06-17T04:31:06Z,42.805,6.029,13.3034,4.60127,2470.74,2023-6-17T06:33:20Z
2023-06-17T04:34:09Z,42.805,6.029,13.3033,4.60105,2470.777,2023-6-17T06:36:23Z
2023-06-17T04:37:12Z,42.805,6.029,13.3034,4.60111,2470.8,2023-6-17T06:39:26Z
2023-06-17T04:40:15Z,42.805,6.029,13.3035,4.60124,2470.777,2023-6-17T06:42:29Z
2023-06-17T04:43:18Z,42.805,6.029,13.3026,4.60108,2470.787,2023-6-17T06:45:32Z
2023-06-17T04:46:21Z,42.805,6.029,13.3033,4.60098,2470.763,2023-6-17T06:48:35Z
2023-06-17T04:49:24Z,42.805,6.029,13.3028,4.60104,2470.763,2023-6-17T06:51:39Z
2023-06-17T04:52:27Z,42.805,6.029,13.3030,4.60103,2470.75,2023-6-17T06:54:42Z
2023-06-17T04:55:30Z,42.805,6.029,13.3041,4.60112,2470.8,2023-6-17T06:57:45Z
2023-06-17T04:58:33Z,42.805,6.029,13.3036,4.60102,2470.777,2023-6-17T07:00:48Z
2023-06-17T05:01:37Z,42.805,6.029,13.3036,4.60101,2470.74,2023-6-17T07:03:51Z
2023-06-17T05:04:40Z,42.805,6.029,13.3031,4.60112,2470.824,2023-6-17T07:06:54Z
2023-06-17T05:07:43Z,42.805,6.029,13.3032,4.60121,2470.787,2023-6-17T07:09:57Z
2023-06-17T05:10:46Z,42.805,6.029,13.3034,4.60108,2470.763,2023-6-17T07:13:00Z
2023-06-17T05:13:49Z,42.805,6.029,13.3030,4.60092,2470.787,2023-6-17T07:16:03Z
2023-06-17T05:16:52Z,42.805,6.029,13.3030,4.60106,2470.824,2023-6-17T07:19:06Z
2023-06-17T05:19:55Z,42.805,6.029,13.3029,4.60114,2470.787,2023-6-17T07:22:09Z
2023-06-17T05:22:58Z,42.805,6.029,13.3037,4.60114,2470.8,2023-6-17T07:25:12Z
2023-06-17T05:26:01Z,42.805,6.029,13.3031,4.60102,2470.763,2023-6-17T07:28:15Z
2023-06-17T05:29:04Z,42.805,6.029,13.3036,4.60116,2470.81,2023-6-17T07:31:19Z
2023-06-17T05:32:07Z,42.805,6.029,13.3041,4.60107,2470.8,2023-6-17T07:34:22Z
2023-06-17T05:35:10Z,42.805,6.029,13.3026,4.60102,2470.824,2023-6-17T07:37:25Z
2023-06-17T05:38:14Z,42.805,6.029,13.3038,4.60118,2470.787,2023-6-17T07:40:28Z
2023-06-17T05:41:17Z,42.805,6.029,13.3037,4.60103,2470.8,2023-6-17T07:43:31Z
2023-06-17T05:44:20Z,42.805,6.029,13.3039,4.60121,2470.824,2023-6-17T07:46:34Z
2023-06-17T05:47:23Z,42.805,6.029,13.3031,4.60102,2470.763,2023-6-17T07:49:37Z
2023-06-17T05:50:26Z,42.805,6.029,13.3037,4.60119,2470.787,2023-6-17T07:52:40Z
2023-06-17T05:53:29Z,42.805,6.029,13.3034,4.60112,2470.787,2023-6-17T07:55:43Z
2023-06-17T05:56:32Z,42.805,6.029,13.3036,4.60127,2470.8,2023-6-17T07:58:46Z
2023-06-17T05:59:35Z,42.805,6.029,13.3027,4.60101,2470.81,2023-6-17T08:01:49Z
2023-06-17T06:02:38Z,42.805,6.029,13.3027,4.60104,2470.824,2023-6-17T08:04:52Z
2023-06-17T06:05:41Z,42.805,6.029,13.3034,4.60103,2470.81,2023-6-17T08:07:56Z
2023-06-17T06:08:44Z,42.805,6.029,13.3034,4.60099,2470.777,2023-6-17T08:10:59Z
2023-06-17T06:11:47Z,42.805,6.029,13.3034,4.60104,2470.81,2023-6-17T08:14:02Z
2023-06-17T06:14:50Z,42.805,6.029,13.3031,4.60104,2470.787,2023-6-17T08:17:05Z
2023-06-17T06:17:54Z,42.805,6.029,13.3031,4.60096,2470.8,2023-6-17T08:20:08Z
2023-06-17T06:20:57Z,42.805,6.029,13.3029,4.60116,2470.81,2023-6-17T08:23:11Z
2023-06-17T06:24:00Z,42.805,6.029,13.3029,4.60099,2470.787,2023-6-17T08:26:14Z
2023-06-17T06:27:03Z,42.805,6.029,13.3045,4.60115,2470.81,2023-6-17T08:29:17Z
2023-06-17T06:30:09Z,42.805,6.029,13.3031,4.60103,2470.787,2023-6-17T08:32:20Z
2023-06-17T06:33:08Z,42.805,6.029,13.3031,4.60102,2470.787,2023-6-17T08:35:22Z
2023-06-17T06:36:11Z,42.805,6.029,13.3033,4.60100,2470.81,2023-6-17T08:38:25Z
2023-06-17T06:39:14Z,42.805,6.029,13.3026,4.60110,2470.824,2023-6-17T08:41:28Z
2023-06-17T06:42:17Z,42.805,6.029,13.3034,4.60108,2470.824,2023-6-17T08:44:31Z
2023-06-17T06:45:20Z,42.805,6.029,13.3029,4.60104,2470.787,2023-6-17T08:47:34Z
2023-06-17T06:48:23Z,42.805,6.029,13.3031,4.60093,2470.847,2023-6-17T08:50:37Z
2023-06-17T06:51:26Z,42.805,6.029,13.3028,4.60095,2470.81,2023-6-17T08:53:41Z
2023-06-17T06:54:29Z,42.805,6.029,13.3034,4.60107,2470.8,2023-6-17T08:56:44Z
2023-06-17T06:57:32Z,42.805,6.029,13.3027,4.60096,2470.8,2023-6-17T08:59:47Z
2023-06-17T07:00:35Z,42.805,6.029,13.3027,4.60100,2470.763,2023-6-17T09:02:50Z
2023-06-17T07:03:39Z,42.805,6.029,13.3028,4.60108,2470.81,2023-6-17T09:05:53Z
2023-06-17T07:06:42Z,42.805,6.029,13.3026,4.60097,2470.763,2023-6-17T09:08:56Z
2023-06-17T07:09:45Z,42.805,6.029,13.3031,4.60101,2470.8,2023-6-17T09:11:59Z
2023-06-17T07:12:48Z,42.805,6.029,13.3024,4.60108,2470.824,2023-6-17T09:15:02Z
2023-06-17T07:15:51Z,42.805,6.029,13.3028,4.60095,2470.754,2023-6-17T09:18:05Z
2023-06-17T07:18:54Z,42.805,6.029,13.3027,4.60097,2470.824,2023-6-17T09:21:08Z
2023-06-17T07:21:57Z,42.805,6.029,13.3026,4.60093,2470.8,2023-6-17T09:24:11Z
2023-06-17T07:25:00Z,42.805,6.029,13.3028,4.60113,2470.81,2023-6-17T09:27:14Z
2023-06-17T07:28:03Z,42.805,6.029,13.3025,4.60102,2470.787,2023-6-17T09:30:17Z
2023-06-17T07:31:06Z,42.805,6.029,13.3026,4.60097,2470.777,2023-6-17T09:33:21Z
2023-06-17T07:34:09Z,42.805,6.029,13.3026,4.60126,2470.8,2023-6-17T09:36:24Z
2023-06-17T07:37:12Z,42.805,6.029,13.3033,4.60122,2470.763,2023-6-17T09:39:27Z
2023-06-17T07:40:16Z,42.805,6.029,13.3043,4.60122,2470.787,2023-6-17T09:42:30Z
2023-06-17T07:43:19Z,42.805,6.029,13.3043,4.60135,2470.74,2023-6-17T09:45:33Z
2023-06-17T07:46:22Z,42.805,6.029,13.3033,4.60108,2470.763,2023-6-17T09:48:36Z
2023-06-17T07:49:25Z,42.805,6.029,13.3031,4.60104,2470.8,2023-6-17T09:51:39Z
2023-06-17T07:52:28Z,42.805,6.029,13.3026,4.60102,2470.787,2023-6-17T09:54:42Z
2023-06-17T07:55:31Z,42.805,6.029,13.3044,4.60128,2470.777,2023-6-17T09:57:45Z
2023-06-17T07:58:34Z,42.805,6.029,13.3030,4.60114,2470.787,2023-6-17T10:00:48Z
2023-06-17T08:01:37Z,42.805,6.029,13.3028,4.60106,2470.777,2023-6-17T10:03:51Z
2023-06-17T08:04:40Z,42.805,6.029,13.3029,4.60108,2470.74,2023-6-17T10:06:55Z
2023-06-17T08:07:43Z,42.805,6.029,13.3031,4.60112,2470.787,2023-6-17T10:09:58Z
2023-06-17T08:10:46Z,42.805,6.029,13.3031,4.60104,2470.763,2023-6-17T10:13:01Z
2023-06-17T08:13:49Z,42.805,6.029,13.3031,4.60107,2470.754,2023-6-17T10:16:04Z
2023-06-17T08:16:53Z,42.805,6.029,13.3034,4.60097,2470.763,2023-6-17T10:19:07Z
2023-06-17T08:19:56Z,42.805,6.029,13.3026,4.60092,2470.754,2023-6-17T10:22:10Z
2023-06-17T08:22:59Z,42.805,6.029,13.3028,4.60098,2470.763,2023-6-17T10:25:13Z
2023-06-17T08:26:02Z,42.805,6.029,13.3036,4.60109,2470.754,2023-6-17T10:28:16Z
2023-06-17T08:29:05Z,42.805,6.029,13.3024,4.60104,2470.74,2023-6-17T10:31:19Z
2023-06-17T08:32:06Z,42.805,6.029,13.3031,4.60110,2470.717,2023-6-17T10:34:21Z
2023-06-17T08:35:10Z,42.805,6.029,13.3034,4.60117,2470.726,2023-6-17T10:37:24Z
2023-06-17T08:38:13Z,42.805,6.029,13.3026,4.60108,2470.777,2023-6-17T10:40:27Z
2023-06-17T08:41:16Z,42.805,6.029,13.3028,4.60098,2470.763,2023-6-17T10:43:30Z
2023-06-17T08:44:19Z,42.805,6.029,13.3028,4.60097,2470.717,2023-6-17T10:46:33Z
2023-06-17T08:47:22Z,42.805,6.029,13.3031,4.60103,2470.763,2023-6-17T10:49:36Z
2023-06-17T08:50:25Z,42.805,6.029,13.3033,4.60119,2470.754,2023-6-17T10:52:39Z
2023-06-17T08:53:28Z,42.805,6.029,13.3034,4.60103,2470.717,2023-6-17T10:55:42Z
2023-06-17T08:56:31Z,42.805,6.029,13.3034,4.60100,2470.754,2023-6-17T10:58:45Z
2023-06-17T08:59:34Z,42.805,6.029,13.3031,4.60101,2470.754,2023-6-17T11:01:49Z
2023-06-17T09:02:37Z,42.805,6.029,13.3029,4.60102,2470.754,2023-6-17T11:04:52Z
2023-06-17T09:05:40Z,42.805,6.029,13.3029,4.60106,2470.726,2023-6-17T11:07:55Z
2023-06-17T09:08:43Z,42.805,6.029,13.3031,4.60110,2470.73,2023-6-17T11:10:58Z
2023-06-17T09:11:47Z,42.805,6.029,13.3032,4.60111,2470.717,2023-6-17T11:14:01Z
2023-06-17T09:14:50Z,42.805,6.029,13.3027,4.60126,2470.73,2023-6-17T11:17:04Z
2023-06-17T09:17:53Z,42.805,6.029,13.3029,4.60099,2470.73,2023-6-17T11:20:07Z
2023-06-17T09:20:56Z,42.805,6.029,13.3026,4.60099,2470.717,2023-6-17T11:23:10Z
2023-06-17T09:23:59Z,42.805,6.029,13.3031,4.60110,2470.717,2023-6-17T11:26:13Z
2023-06-17T09:27:02Z,42.805,6.029,13.3025,4.60098,2470.717,2023-6-17T11:29:16Z
2023-06-17T09:30:05Z,42.805,6.029,13.3036,4.60135,2470.73,2023-6-17T11:32:19Z
2023-06-17T09:33:08Z,42.805,6.029,13.3045,4.60137,2470.707,2023-6-17T11:35:22Z
2023-06-17T09:36:11Z,42.805,6.029,13.3044,4.60141,2470.717,2023-6-17T11:38:26Z
2023-06-17T09:39:14Z,42.805,6.029,13.3031,4.60120,2470.693,2023-6-17T11:41:29Z
2023-06-17T09:42:17Z,42.805,6.029,13.3029,4.60132,2470.717,2023-6-17T11:44:32Z
2023-06-17T09:45:21Z,42.805,6.029,13.3038,4.60115,2470.693,2023-6-17T11:47:35Z
2023-06-17T09:48:24Z,42.805,6.029,13.3036,4.60107,2470.74,2023-6-17T11:50:38Z
2023-06-17T09:51:27Z,42.805,6.029,13.3033,4.60129,2470.693,2023-6-17T11:53:41Z
2023-06-17T09:54:30Z,42.805,6.029,13.3034,4.60145,2470.717,2023-6-17T11:56:44Z
2023-06-17T09:57:33Z,42.805,6.029,13.3026,4.60124,2470.717,2023-6-17T11:59:47Z
2023-06-17T10:00:36Z,42.805,6.029,13.3033,4.60103,2470.707,2023-6-17T12:02:50Z
2023-06-17T10:03:39Z,42.805,6.029,13.3036,4.60123,2470.684,2023-6-17T12:05:53Z
2023-06-17T10:06:42Z,42.805,6.029,13.3031,4.60098,2470.693,2023-6-17T12:08:56Z
2023-06-17T10:09:45Z,42.805,6.029,13.3034,4.60104,2470.707,2023-6-17T12:12:00Z
2023-06-17T10:12:48Z,42.805,6.029,13.3028,4.60105,2470.693,2023-6-17T12:15:03Z
2023-06-17T10:15:51Z,42.805,6.029,13.3043,4.60131,2470.693,2023-6-17T12:18:06Z
2023-06-17T10:18:54Z,42.805,6.029,13.3032,4.60112,2470.693,2023-6-17T12:21:09Z
2023-06-17T10:21:58Z,42.805,6.029,13.3032,4.60115,2470.684,2023-6-17T12:24:12Z
2023-06-17T10:25:01Z,42.805,6.029,13.3031,4.60098,2470.693,2023-6-17T12:27:15Z
2023-06-17T10:28:04Z,42.805,6.029,13.3031,4.60120,2470.693,2023-6-17T12:30:18Z
2023-06-17T10:31:05Z,42.805,6.029,13.3030,4.60110,2470.684,2023-6-17T12:33:19Z
2023-06-17T10:34:08Z,42.805,6.029,13.3029,4.60127,2470.684,2023-6-17T12:36:22Z
2023-06-17T10:37:11Z,42.805,6.029,13.3029,4.60140,2470.684,2023-6-17T12:39:26Z
2023-06-17T10:40:14Z,42.805,6.029,13.3037,4.60131,2470.67,2023-6-17T12:42:29Z
2023-06-17T10:43:17Z,42.805,6.029,13.3035,4.60107,2470.67,2023-6-17T12:45:32Z
2023-06-17T10:46:20Z,42.805,6.029,13.3034,4.60126,2470.684,2023-6-17T12:48:35Z
2023-06-17T10:49:24Z,42.805,6.029,13.3034,4.60119,2470.693,2023-6-17T12:51:38Z
2023-06-17T10:52:27Z,42.805,6.029,13.3034,4.60145,2470.684,2023-6-17T12:54:41Z
2023-06-17T10:55:30Z,42.805,6.029,13.3029,4.60106,2470.661,2023-6-17T12:57:44Z
2023-06-17T10:58:33Z,42.805,6.029,13.3032,4.60105,2470.646,2023-6-17T13:00:47Z
2023-06-17T11:01:36Z,42.805,6.029,13.3034,4.60107,2470.684,2023-6-17T13:03:50Z
2023-06-17T11:04:39Z,42.805,6.029,13.3031,4.60104,2470.661,2023-6-17T13:06:53Z
2023-06-17T11:07:42Z,42.805,6.029,13.3032,4.60103,2470.684,2023-6-17T13:09:56Z
2023-06-17T11:10:45Z,42.805,6.029,13.3032,4.60108,2470.646,2023-6-17T13:12:59Z
2023-06-17T11:13:48Z,42.805,6.029,13.3031,4.60109,2470.707,2023-6-17T13:16:03Z
2023-06-17T11:16:51Z,42.805,6.029,13.3036,4.60097,2470.684,2023-6-17T13:19:06Z
2023-06-17T11:19:54Z,42.805,6.029,13.3031,4.60108,2470.67,2023-6-17T13:22:09Z
2023-06-17T11:22:58Z,42.805,6.029,13.3031,4.60119,2470.684,2023-6-17T13:25:12Z
2023-06-17T11:26:01Z,42.805,6.029,13.3033,4.60117,2470.646,2023-6-17T13:28:15Z
2023-06-17T11:29:04Z,42.805,6.029,13.3031,4.60110,2470.624,2023-6-17T13:31:18Z
2023-06-17T11:32:07Z,42.805,6.029,13.3039,4.60109,2470.67,2023-6-17T13:34:21Z
2023-06-17T11:35:10Z,42.805,6.029,13.3030,4.60132,2470.637,2023-6-17T13:37:24Z
2023-06-17T11:38:13Z,42.805,6.029,13.3039,4.60118,2470.624,2023-6-17T13:40:27Z
2023-06-17T11:41:16Z,42.805,6.029,13.3043,4.60127,2470.684,2023-6-17T13:43:30Z
2023-06-17T11:44:19Z,42.805,6.029,13.3034,4.60107,2470.661,2023-6-17T13:46:33Z
2023-06-17T11:47:22Z,42.805,6.029,13.3035,4.60130,2470.646,2023-6-17T13:49:37Z
2023-06-17T11:50:25Z,42.805,6.029,13.3039,4.60107,2470.637,2023-6-17T13:52:40Z
2023-06-17T11:53:28Z,42.805,6.029,13.3029,4.60100,2470.624,2023-6-17T13:55:43Z
2023-06-17T11:56:31Z,42.805,6.029,13.3031,4.60105,2470.661,2023-6-17T13:58:46Z
2023-06-17T11:59:35Z,42.805,6.029,13.3027,4.60110,2470.614,2023-6-17T14:01:49Z
2023-06-17T12:02:38Z,42.805,6.029,13.3031,4.60103,2470.624,2023-6-17T14:04:52Z
2023-06-17T12:05:41Z,42.805,6.029,13.3039,4.60106,2470.646,2023-6-17T14:07:55Z
2023-06-17T12:08:44Z,42.805,6.029,13.3037,4.60131,2470.637,2023-6-17T14:10:58Z
2023-06-17T12:11:47Z,42.805,6.029,13.3028,4.60119,2470.661,2023-6-17T14:14:01Z
2023-06-17T12:14:50Z,42.805,6.029,13.3031,4.60104,2470.646,2023-6-17T14:17:04Z
2023-06-17T12:17:53Z,42.805,6.029,13.3031,4.60103,2470.624,2023-6-17T14:20:07Z
2023-06-17T12:20:56Z,42.805,6.029,13.3031,4.60114,2470.646,2023-6-17T14:23:10Z
2023-06-17T12:23:59Z,42.805,6.029,13.3036,4.60112,2470.661,2023-6-17T14:26:14Z
2023-06-17T12:27:02Z,42.805,6.029,13.3039,4.60115,2470.661,2023-6-17T14:29:17Z
2023-06-17T12:30:05Z,42.805,6.029,13.3034,4.60119,2470.646,2023-6-17T14:32:20Z
2023-06-17T12:33:09Z,42.805,6.029,13.3031,4.60110,2470.637,2023-6-17T14:35:23Z
2023-06-17T12:36:12Z,42.805,6.029,13.3034,4.60114,2470.646,2023-6-17T14:38:26Z
2023-06-17T12:39:15Z,42.805,6.029,13.3037,4.60137,2470.67,2023-6-17T14:41:29Z
2023-06-17T12:42:18Z,42.805,6.029,13.3031,4.60145,2470.661,2023-6-17T14:44:32Z
2023-06-17T12:45:21Z,42.805,6.029,13.3030,4.60103,2470.646,2023-6-17T14:47:35Z
2023-06-17T12:48:24Z,42.805,6.029,13.3040,4.60135,2470.637,2023-6-17T14:50:38Z
2023-06-17T12:51:27Z,42.805,6.029,13.3053,4.60132,2470.637,2023-6-17T14:53:41Z
2023-06-17T12:54:30Z,42.805,6.029,13.3036,4.60139,2470.6,2023-6-17T14:56:44Z
2023-06-17T12:57:33Z,42.805,6.029,13.3033,4.60119,2470.624,2023-6-17T14:59:48Z
2023-06-17T13:00:36Z,42.805,6.029,13.3043,4.60122,2470.624,2023-6-17T15:02:51Z
2023-06-17T13:03:39Z,42.805,6.029,13.3043,4.60127,2470.614,2023-6-17T15:05:54Z
2023-06-17T13:06:42Z,42.805,6.029,13.3032,4.60127,2470.624,2023-6-17T15:08:57Z
2023-06-17T13:09:46Z,42.805,6.029,13.3036,4.60123,2470.646,2023-6-17T15:12:00Z
2023-06-17T13:12:49Z,42.805,6.029,13.3031,4.60115,2470.637,2023-6-17T15:15:03Z
2023-06-17T13:15:52Z,42.805,6.029,13.3043,4.60146,2470.624,2023-6-17T15:18:06Z
2023-06-17T13:18:55Z,42.805,6.029,13.3045,4.60129,2470.614,2023-6-17T15:21:09Z
2023-06-17T13:21:58Z,42.805,6.029,13.3040,4.60130,2470.624,2023-6-17T15:24:12Z
2023-06-17T13:25:01Z,42.805,6.029,13.3036,4.60139,2470.624,2023-6-17T15:27:15Z
2023-06-17T13:28:04Z,42.805,6.029,13.3041,4.60140,2470.6,2023-6-17T15:30:18Z
2023-06-17T13:31:07Z,42.805,6.029,13.3035,4.60119,2470.637,2023-6-17T15:33:21Z
2023-06-17T13:34:10Z,42.805,6.029,13.3036,4.60114,2470.624,2023-6-17T15:36:24Z
2023-06-17T13:37:13Z,42.805,6.029,13.3041,4.60130,2470.637,2023-6-17T15:39:28Z
2023-06-17T13:40:16Z,42.805,6.029,13.3045,4.60142,2470.661,2023-6-17T15:42:31Z
2023-06-17T13:43:19Z,42.805,6.029,13.3048,4.60150,2470.624,2023-6-17T15:45:34Z
2023-06-17T13:46:23Z,42.805,6.029,13.3048,4.60140,2470.6,2023-6-17T15:48:37Z
2023-06-17T13:49:26Z,42.805,6.029,13.3048,4.60156,2470.661,2023-6-17T15:51:40Z
2023-06-17T13:52:29Z,42.805,6.029,13.3061,4.60162,2470.624,2023-6-17T15:54:43Z
2023-06-17T13:55:32Z,42.805,6.029,13.3045,4.60144,2470.624,2023-6-17T15:57:46Z
2023-06-17T13:58:35Z,42.805,6.029,13.3046,4.60141,2470.637,2023-6-17T16:00:49Z
2023-06-17T14:01:38Z,42.805,6.029,13.3046,4.60130,2470.637,2023-6-17T16:03:52Z
2023-06-17T14:04:41Z,42.805,6.029,13.3041,4.60121,2470.661,2023-6-17T16:06:55Z
2023-06-17T14:07:44Z,42.805,6.029,13.3046,4.60143,2470.646,2023-6-17T16:09:58Z
2023-06-17T14:10:47Z,42.805,6.029,13.3045,4.60143,2470.661,2023-6-17T16:13:02Z
2023-06-17T14:13:50Z,42.805,6.029,13.3045,4.60130,2470.646,2023-6-17T16:16:05Z
2023-06-17T14:16:53Z,42.805,6.029,13.3044,4.60133,2470.624,2023-6-17T16:19:08Z
2023-06-17T14:19:56Z,42.805,6.029,13.3053,4.60157,2470.661,2023-6-17T16:22:11Z
2023-06-17T14:23:00Z,42.805,6.029,13.3042,4.60142,2470.67,2023-6-17T16:25:14Z
2023-06-17T14:26:03Z,42.805,6.029,13.3043,4.60146,2470.67,2023-6-17T16:28:17Z
2023-06-17T14:29:06Z,42.805,6.029,13.3052,4.60163,2470.646,2023-6-17T16:31:20Z
2023-06-17T14:32:08Z,42.805,6.029,13.3045,4.60158,2470.661,2023-6-17T16:34:22Z
2023-06-17T14:35:11Z,42.805,6.029,13.3054,4.60138,2470.646,2023-6-17T16:37:25Z
2023-06-17T14:38:14Z,42.805,6.029,13.3046,4.60140,2470.661,2023-6-17T16:40:28Z
2023-06-17T14:41:17Z,42.805,6.029,13.3040,4.60155,2470.684,2023-6-17T16:43:31Z
2023-06-17T14:44:20Z,42.805,6.029,13.3035,4.60150,2470.67,2023-6-17T16:46:34Z
2023-06-17T14:47:23Z,42.805,6.029,13.3044,4.60152,2470.684,2023-6-17T16:49:37Z
2023-06-17T14:50:26Z,42.805,6.029,13.3041,4.60132,2470.646,2023-6-17T16:52:41Z
2023-06-17T14:53:29Z,42.805,6.029,13.3039,4.60141,2470.646,2023-6-17T16:55:44Z
2023-06-17T14:56:32Z,42.805,6.029,13.3047,4.60150,2470.67,2023-6-17T16:58:47Z
2023-06-17T14:59:36Z,42.805,6.029,13.3046,4.60152,2470.684,2023-6-17T17:01:50Z
2023-06-17T15:02:39Z,42.805,6.029,13.3037,4.60160,2470.684,2023-6-17T17:04:53Z
2023-06-17T15:05:42Z,42.805,6.029,13.3043,4.60152,2470.707,2023-6-17T17:07:56Z
2023-06-17T15:08:45Z,42.805,6.029,13.3040,4.60139,2470.717,2023-6-17T17:10:59Z
2023-06-17T15:11:48Z,42.805,6.029,13.3041,4.60167,2470.684,2023-6-17T17:14:02Z